Time,TemperatureF,DewpointF,PressureIn,WindDirection,WindDirectionDegrees,WindSpeedMPH,WindSpeedGustMPH,Humidity,HourlyPrecipIn,Conditions,Clouds,dailyrainin,SoftwareType,DateUTC
2013-03-05 00:00:00,27.7,13.2,30.05,NNE,30,6.3,10.1,54,0.00,,---,0.00,VWS V12.08,2013-03-05 06:00:00,
2013-03-05 00:05:00,27.7,13.6,30.05,NNE,32,7.6,9.2,55,0.00,,---,0.00,VWS V12.08,2013-03-05 06:05:00,
2013-03-05 00:10:00,27.7,13.6,30.05,NNE,22,8.1,10.1,55,0.00,,---,0.00,VWS V12.08,2013-03-05 06:10:00,
2013-03-05 00:15:00,27.7,14.0,30.02,NNE,31,8.7,10.5,56,0.00,,---,0.00,VWS V12.08,2013-03-05 06:15:00,
2013-03-05 00:20:00,27.7,14.0,30.02,NNE,27,8.7,8.7,56,0.00,,---,0.00,VWS V12.08,2013-03-05 06:20:00,
2013-03-05 00:25:00,27.9,14.2,30.02,NNE,22,8.3,10.1,56,0.00,,---,0.00,VWS V12.08,2013-03-05 06:25:00,
2013-03-05 00:30:00,27.9,14.2,30.02,NNE,24,8.3,10.5,56,0.00,,---,0.00,VWS V12.08,2013-03-05 06:30:00,
2013-03-05 00:35:00,27.9,14.6,30.02,NNE,31,7.6,8.3,57,0.00,,---,0.00,VWS V12.08,2013-03-05 06:35:00,
2013-03-05 00:40:00,27.9,14.6,30.02,NNE,29,8.3,10.1,57,0.00,,---,0.00,VWS V12.08,2013-03-05 06:40:00,
2013-03-05 00:45:00,27.7,14.4,30.02,NNE,28,8.7,10.5,57,0.00,,---,0.00,VWS V12.08,2013-03-05 06:45:00,
2013-03-05 00:50:00,27.7,14.4,30.02,NNE,31,8.3,10.5,57,0.00,,---,0.00,VWS V12.08,2013-03-05 06:50:00,
2013-03-05 00:55:00,27.7,14.9,30.02,NE,36,8.7,10.5,58,0.00,,---,0.00,VWS V12.08,2013-03-05 06:55:00,
2013-03-05 01:00:00,27.9,15.0,30.02,NNE,20,8.1,10.5,58,0.00,,---,0.00,VWS V12.08,2013-03-05 07:00:00,
2013-03-05 01:05:00,27.9,15.0,30.02,NNE,22,8.7,8.7,58,0.00,,---,0.00,VWS V12.08,2013-03-05 07:05:00,
2013-03-05 01:10:00,27.9,15.0,30.02,NNE,27,8.1,8.7,58,0.00,,---,0.00,VWS V12.08,2013-03-05 07:10:00,
2013-03-05 01:16:00,27.9,15.0,30.02,NE,38,8.3,8.7,58,0.00,,---,0.00,VWS V12.08,2013-03-05 07:16:00,
2013-03-05 01:21:00,27.9,15.0,30.02,NNE,31,8.3,9.2,58,0.00,,---,0.00,VWS V12.08,2013-03-05 07:21:00,
2013-03-05 01:26:00,28.0,15.2,30.02,NE,35,8.3,10.1,58,0.00,,---,0.00,VWS V12.08,2013-03-05 07:26:00,
2013-03-05 01:31:00,28.0,15.2,30.02,NNE,25,8.1,10.1,58,0.00,,---,0.00,VWS V12.08,2013-03-05 07:31:00,
2013-03-05 01:36:00,28.0,15.2,30.02,NNE,22,8.1,11.0,58,0.00,,---,0.00,VWS V12.08,2013-03-05 07:36:00,
2013-03-05 01:41:00,28.0,15.2,30.02,NE,39,11.0,11.4,58,0.00,,---,0.00,VWS V12.08,2013-03-05 07:41:00,
2013-03-05 01:46:00,28.0,15.2,30.02,NNE,32,8.3,11.4,58,0.00,,---,0.00,VWS V12.08,2013-03-05 07:46:00,
2013-03-05 01:51:00,28.2,15.4,30.02,NE,36,5.8,10.5,58,0.00,,---,0.00,VWS V12.08,2013-03-05 07:51:00,
2013-03-05 01:56:00,28.2,15.4,30.02,NNE,22,8.7,12.3,58,0.00,,---,0.00,VWS V12.08,2013-03-05 07:56:00,
2013-03-05 02:01:00,28.4,15.5,29.99,NNE,27,10.1,12.3,58,0.00,,---,0.00,VWS V12.08,2013-03-05 08:01:00,
2013-03-05 02:06:00,28.4,15.5,29.99,North,2,8.1,12.8,58,0.00,,---,0.00,VWS V12.08,2013-03-05 08:06:00,
2013-03-05 02:11:00,28.4,15.5,29.99,NNE,24,8.7,12.8,58,0.00,,---,0.00,VWS V12.08,2013-03-05 08:11:00,
2013-03-05 02:16:00,28.6,15.7,29.99,NE,38,8.1,12.8,58,0.00,,---,0.00,VWS V12.08,2013-03-05 08:16:00,
2013-03-05 02:21:00,28.6,15.7,29.99,NE,34,6.7,10.5,58,0.00,,---,0.00,VWS V12.08,2013-03-05 08:21:00,
2013-03-05 02:26:00,28.6,15.7,29.99,NNE,19,10.1,10.5,58,0.00,,---,0.00,VWS V12.08,2013-03-05 08:26:00,
2013-03-05 02:31:00,28.6,15.7,29.99,NNE,20,8.7,11.0,58,0.00,,---,0.00,VWS V12.08,2013-03-05 08:31:00,
2013-03-05 02:36:00,28.6,15.7,29.99,NNE,23,8.3,10.5,58,0.00,,---,0.00,VWS V12.08,2013-03-05 08:36:00,
2013-03-05 02:41:00,28.8,15.9,29.99,NE,38,10.1,10.5,58,0.00,,---,0.00,VWS V12.08,2013-03-05 08:41:00,
2013-03-05 02:46:00,28.8,15.9,29.99,NNE,31,8.1,10.5,58,0.00,,---,0.00,VWS V12.08,2013-03-05 08:46:00,
2013-03-05 02:51:00,28.8,15.9,29.99,NNE,32,8.3,10.5,58,0.00,,---,0.00,VWS V12.08,2013-03-05 08:51:00,
2013-03-05 02:56:00,28.8,15.9,29.96,NNE,24,8.7,10.5,58,0.00,,---,0.00,VWS V12.08,2013-03-05 08:56:00,
2013-03-05 03:01:00,28.8,15.9,29.96,NNE,23,8.7,11.0,58,0.00,,---,0.00,VWS V12.08,2013-03-05 09:01:00,
2013-03-05 03:06:00,28.9,16.0,29.96,NNE,33,8.1,10.5,58,0.00,,---,0.00,VWS V12.08,2013-03-05 09:06:00,
2013-03-05 03:11:00,28.9,15.6,29.96,NE,34,9.2,10.5,57,0.00,,---,0.00,VWS V12.08,2013-03-05 09:11:00,
2013-03-05 03:16:00,28.9,15.6,29.96,NNE,33,10.5,10.5,57,0.00,,---,0.00,VWS V12.08,2013-03-05 09:16:00,
2013-03-05 03:21:00,28.9,15.6,29.96,NNE,25,8.7,10.1,57,0.00,,---,0.00,VWS V12.08,2013-03-05 09:21:00,
2013-03-05 03:26:00,28.9,15.6,29.96,NNE,24,6.3,10.1,57,0.00,,---,0.00,VWS V12.08,2013-03-05 09:26:00,
2013-03-05 03:31:00,28.9,15.6,29.96,NNE,27,8.1,10.1,57,0.00,,---,0.00,VWS V12.08,2013-03-05 09:31:00,
2013-03-05 03:36:00,28.9,15.6,29.96,NNE,27,7.6,8.7,57,0.00,,---,0.00,VWS V12.08,2013-03-05 09:36:00,
2013-03-05 03:41:00,28.9,15.6,29.96,NNE,14,5.8,10.5,57,0.00,,---,0.00,VWS V12.08,2013-03-05 09:41:00,
2013-03-05 03:46:00,28.9,15.6,29.96,NNE,23,8.1,10.5,57,0.00,,---,0.00,VWS V12.08,2013-03-05 09:46:00,
2013-03-05 03:51:00,28.9,16.0,29.96,NNE,18,6.3,10.1,58,0.00,,---,0.00,VWS V12.08,2013-03-05 09:51:00,
2013-03-05 03:56:00,28.9,16.0,29.96,NNE,28,8.3,11.4,58,0.00,,---,0.00,VWS V12.08,2013-03-05 09:56:00,
2013-03-05 04:01:00,28.9,16.0,29.96,NNE,24,7.2,11.4,58,0.00,,---,0.00,VWS V12.08,2013-03-05 10:01:00,
2013-03-05 04:05:00,28.9,16.0,29.96,NNE,28,8.3,11.0,58,0.00,,---,0.00,VWS V12.08,2013-03-05 10:05:00,
2013-03-05 04:06:00,28.9,16.0,29.96,NNE,32,8.7,11.0,58,0.00,,---,0.00,VWS V12.08,2013-03-05 10:06:00,
2013-03-05 04:11:00,28.9,16.0,29.96,NNE,28,8.3,11.0,58,0.00,,---,0.00,VWS V12.08,2013-03-05 10:11:00,
2013-03-05 05:04:00,28.9,16.0,29.96,NNE,28,8.3,11.0,58,0.00,,---,0.00,VWS V12.08,2013-03-05 11:04:00,
2013-03-05 05:09:00,28.9,16.0,29.96,NNE,28,8.3,11.0,58,0.00,,---,0.00,VWS V12.08,2013-03-05 11:09:00,